User: anonymous   Login
Location: Dallas
(32.7833°N, 96.8000°W)
Time: 00:20:48
(UTC-05:00)
Language:

N. Korean satellite - Orbit

View from above orbital plane
View from above orbital plane
View from above satellite
View from above satellite

Ground track
Ground track

The orbit data is extracted from the following two-line orbital elements,

1 39026U 12072A   21208.69782319  .00002524  00000-0  86914-4 0  9995
2 39026  97.2455 200.5910 0033739 239.2696 120.5221 15.30437722479246
Epoch (UTC): 27 July 2021 16:44:51
Eccentricity: 0.0033739
inclination: 97.2455°
perigee height: 451 km
apogee height: 497 km
right ascension of ascending node: 200.5910°
argument of perigee: 239.2696°
revolutions per day: 15.30437722
mean anomaly at epoch: 120.5221°
orbit number at epoch: 47924

The dashed part of the orbit path shows where the satellite is in the earth's shadow,  

DLR